Location: Palau
(42.3086°N, 3.1507°E)
Time: 22:57:06
(UTC+00:00)

Cosmos 1745 Rocket - Pass Details

Date: 26 May 2020
Orbit: 953 x 997 km, 83.0° (Epoch: 11 July)

Event Time Altitude Azimuth Distance (km) Brightness Sun altitude
Exits shadow 01:12:45 46° 175° (S) 1,275 4.2 -23.3°
Maximum altitude 01:14:45 80° 96° (E) 976 3.9 -23.2°
Drops below altitude 10° 01:20:55 10° 10° (N) 2,692 7.4 -22.7°
Sets 01:23:24 0° 9° (N) 3,641 8.3 -22.5°
